Home > Weather > Spydeberg > Past weeks

Flag for Norway Weather for the Past 2 Weeks in Spydeberg, Norway

Now
34 °F

Passing clouds.


Feels Like: 30 °F
Forecast: 22 / 28 °F
Wind: 5 mph from North

Location: Rygge

Current Time: Feb 11, 2016 at 1:40:58 AM

Latest Report: Feb 11, 2016 at 12:50 AM


Visibility: N/A

Pressure: 29.30 "Hg

Humidity: 87%

Dew point: 30 °F

Location of SpydebergLocation

Historic Weather in Spydeberg — Graph

°F

Spydeberg Temperature Yesterday

Maximum temperature yesterday: 37 °F (at 1:20 AM)
Minimum temperature yesterday: 32 °F (at 7:50 PM)
Average temperature yesterday: 35 °F

High & Low Weather Summary for the Past Weeks

 TemperatureHumidityPressure
High43 °F (Jan 28, 12:20 PM)100% (Jan 26, 11:20 PM)29.92 "Hg (Jan 26, 11:20 PM)
Low25 °F (Feb 4, 5:50 AM)45% (Jan 31, 2:20 PM)28.77 "Hg (Feb 2, 6:20 PM)
Average37 °F84%29.25 "Hg
* Reported Jan 26 11:20 PM — Feb 10 11:50 PM, Spydeberg, Weather by CustomWeather, © 2016

Note: Actual official high and low records may vary slightly from our data, if they occured in-between our weather recording intervals... More about our weather records

Advertising

Spydeberg Weather History for the Previous 24 Hours

 ConditionsComfort  
Time TempWeatherWind HumidityBarometerVisibility
11:50 PM
Wed, Feb 10
32 °FPassing clouds.3 mph87%29.27 "HgN/A
11:20 PM32 °FPassing clouds.6 mph87%29.27 "HgN/A
10:50 PM32 °FPassing clouds.8 mph87%29.24 "HgN/A
10:20 PM32 °FPassing clouds.7 mph87%29.24 "HgN/A
9:50 PM34 °FPassing clouds.7 mph81%29.24 "HgN/A
9:20 PM34 °FPassing clouds.8 mph87%29.21 "HgN/A
8:50 PM34 °FPassing clouds.7 mph87%29.21 "HgN/A
8:20 PM34 °FPassing clouds.7 mph87%29.21 "HgN/A
7:50 PM32 °FPassing clouds.7 mph93%29.18 "HgN/A
7:20 PM34 °FPassing clouds.8 mph87%29.18 "HgN/A
6:50 PM34 °FPassing clouds.8 mph87%29.18 "HgN/A
6:20 PM34 °FPassing clouds.8 mph93%29.18 "HgN/A
5:50 PM36 °FPassing clouds.9 mph87%29.15 "HgN/A
5:20 PM36 °FPartly cloudy.9 mph87%29.15 "HgN/A
4:50 PM36 °FScattered clouds.7 mph93%29.15 "HgN/A
4:20 PM36 °FPartly sunny.8 mph93%29.12 "HgN/A
3:50 PM36 °FPartly sunny.8 mph93%29.12 "HgN/A
3:20 PM37 °FLight rain. Broken clouds.9 mph93%29.12 "HgN/A
2:50 PM36 °FLight rain. Partly sunny.7 mph100%29.09 "Hg6 mi
2:20 PM36 °FLight rain. Partly sunny.7 mph100%29.09 "Hg5 mi
1:50 PM37 °FPartly sunny.8 mph93%29.09 "HgN/A
1:20 PM37 °FPartly sunny.7 mph93%29.06 "HgN/A
12:50 PM37 °FPartly sunny.7 mph100%29.06 "HgN/A
12:20 PM37 °FPartly sunny.6 mph93%29.06 "Hg6 mi
11:50 AM36 °FDrizzle. Partly sunny.8 mph100%29.06 "Hg6 mi
11:20 AM36 °FBroken clouds.6 mph100%29.06 "Hg4 mi
10:50 AM36 °FFog.6 mph100%29.03 "Hg1 mi
10:20 AM36 °FDrizzle. Fog.6 mph100%29.03 "Hg1 mi
9:50 AM36 °FDrizzle. Fog.6 mph100%29.03 "Hg1 mi
9:20 AM36 °FFog.6 mph100%29.03 "Hg3 mi
8:50 AM36 °FFog.6 mph100%29.03 "Hg1 mi
8:20 AM36 °FFog.6 mph93%29.03 "Hg1 mi
7:50 AM34 °FFog.5 mph100%29.03 "Hg2 mi
7:20 AM34 °FFog.3 mph100%29.00 "Hg1 mi
6:50 AM36 °FFog.5 mph93%29.00 "Hg1 mi
6:20 AM34 °FPassing clouds.3 mph100%29.00 "Hg4 mi
4:50 AM36 °FFog.5 mph100%29.00 "Hg1 mi
4:20 AM36 °FLight rain. Low clouds.6 mph100%29.00 "Hg3 mi
3:50 AM36 °FDrizzle. Low clouds.5 mph100%28.97 "Hg2 mi
3:20 AM36 °FDrizzle. Low clouds.5 mph100%29.00 "Hg2 mi
2:50 AM36 °FDrizzle. Mostly cloudy.5 mph100%28.97 "Hg3 mi
2:20 AM37 °FDrizzle. Fog.5 mph93%28.97 "Hg3 mi
1:50 AM37 °FDrizzle. Low clouds.6 mph93%28.97 "HgN/A
1:20 AM37 °FDrizzle. Mostly cloudy.2 mph100%28.97 "Hg6 mi
Weather by CustomWeather, © 2016

See weather overviewHow to use our weather pages